| time (UTC) | temp C | wind direction | speed KPH | gust KPH | rain 1hr cm | rain 24hr cm | rain mn cm | humidity % | barometer mb |
| 20260901141905 | 15 | 176 | 0.0 | 0.0 | 0.00 | 0.10 | 0.03 | 89 | 1012.7 |
| 20260901141408 | 15 | 176 | 0.0 | 0.0 | 0.00 | 0.10 | 0.03 | 88 | 1012.7 |
| 20260901140907 | 15 | 176 | 0.0 | 0.0 | 0.00 | 0.10 | 0.03 | 88 | 1012.7 |
| 20260901140405 | 15 | 176 | 0.0 | 0.0 | 0.00 | 0.10 | 0.03 | 88 | 1012.7 |
| 20260901134906 | 15 | 176 | 0.0 | 0.0 | 0.00 | 0.10 | 0.03 | 89 | 1012.6 |
| 20260901134404 | 15 | 176 | 0.0 | 0.0 | 0.00 | 0.10 | 0.03 | 89 | 1012.6 |
| 20260901133908 | 15 | 176 | 0.0 | 0.0 | 0.00 | 0.10 | 0.03 | 89 | 1012.5 |
| 20260901133407 | 15 | 176 | 0.0 | 0.0 | 0.00 | 0.10 | 0.03 | 89 | 1012.4 |
| 20260901131907 | 15 | 176 | 0.0 | 0.0 | 0.00 | 0.10 | 0.03 | 88 | 1012.2 |
| 20260901130904 | 15 | 176 | 0.0 | 0.0 | 0.00 | 0.10 | 0.03 | 87 | 1012.1 |
| 20260901124904 | 15 | 160 | 0.0 | 0.0 | 0.00 | 0.10 | 0.03 | 88 | 1011.8 |
| 20260901124408 | 15 | 160 | 0.0 | 0.0 | 0.00 | 0.10 | 0.03 | 88 | 1011.8 |
| 20260901123406 | 15 | 160 | 0.0 | 0.0 | 0.00 | 0.10 | 0.03 | 89 | 1011.4 |
| 20260901121906 | 15 | 160 | 0.0 | 0.0 | 0.00 | 0.10 | 0.03 | 89 | 1011.2 |
| 20260901121404 | 15 | 160 | 0.0 | 0.0 | 0.00 | 0.10 | 0.03 | 89 | 1011.3 |
| 20260901120908 | 15 | 160 | 0.0 | 0.0 | 0.00 | 0.10 | 0.03 | 89 | 1011.4 |
| 20260901120406 | 15 | 160 | 0.0 | 0.0 | 0.00 | 0.10 | 0.03 | 88 | 1011.2 |
| 20260901114906 | 15 | 160 | 0.0 | 0.0 | 0.00 | 0.10 | 0.03 | 87 | 1011.6 |
| 20260901114403 | 15 | 160 | 0.0 | 0.0 | 0.00 | 0.10 | 0.03 | 87 | 1011.6 |
| 20260901113908 | 15 | 160 | 0.0 | 0.0 | 0.00 | 0.10 | 0.03 | 86 | 1011.5 |
| 20260901113406 | 15 | 160 | 0.0 | 0.0 | 0.00 | 0.10 | 0.03 | 87 | 1011.4 |
| 20260901111908 | 15 | 161 | 0.0 | 3.2 | 0.00 | 0.10 | 0.03 | 89 | 1011.3 |
| 20260901111405 | 14 | 177 | 0.0 | 0.0 | 0.00 | 0.10 | 0.03 | 90 | 1011.4 |
| 20260901110904 | 14 | 221 | 0.0 | 0.0 | 0.00 | 0.10 | 0.03 | 91 | 1011.4 |
| 20260901110408 | 14 | 221 | 0.0 | 0.0 | 0.00 | 0.10 | 0.03 | 91 | 1011.4 |
| 20260901104903 | 14 | 221 | 0.0 | 1.6 | 0.00 | 0.10 | 0.03 | 93 | 1011.7 |
| 20260901104406 | 14 | 239 | 0.0 | 1.6 | 0.00 | 0.10 | 0.03 | 93 | 1011.7 |
| 20260901103905 | 14 | 255 | 0.0 | 1.6 | 0.00 | 0.10 | 0.03 | 93 | 1011.7 |
| 20260901103403 | 14 | 255 | 0.0 | 0.0 | 0.00 | 0.10 | 0.03 | 93 | 1011.7 |
| 20260901101904 | 13 | 255 | 0.0 | 0.0 | 0.03 | 0.10 | 0.03 | 93 | 1011.9 |
| 20260901101407 | 13 | 255 | 0.0 | 0.0 | 0.03 | 0.10 | 0.03 | 93 | 1011.9 |
| 20260901100906 | 13 | 255 | 0.0 | 0.0 | 0.03 | 0.10 | 0.03 | 93 | 1011.8 |
| 20260901100405 | 14 | 255 | 0.0 | 0.0 | 0.03 | 0.10 | 0.03 | 93 | 1011.8 |
| 20260901094906 | 14 | 255 | 0.0 | 0.0 | 0.03 | 0.10 | 0.03 | 93 | 1012.1 |
| 20260901094405 | 14 | 255 | 0.0 | 0.0 | 0.03 | 0.10 | 0.03 | 93 | 1012.2 |
| 20260901093908 | 14 | 255 | 0.0 | 0.0 | 0.03 | 0.10 | 0.03 | 92 | 1012.3 |
| 20260901093407 | 14 | 255 | 0.0 | 0.0 | 0.03 | 0.10 | 0.03 | 92 | 1012.2 |
| 20260901091906 | 15 | 255 | 0.0 | 0.0 | 0.00 | 0.08 | 0.00 | 92 | 1012.2 |
| 20260901091405 | 15 | 255 | 0.0 | 0.0 | 0.00 | 0.08 | 0.00 | 92 | 1012.1 |
| 20260901090908 | 15 | 255 | 0.0 | 0.0 | 0.00 | 0.08 | 0.00 | 92 | 1012.1 |
| 20260901090407 | 15 | 255 | 0.0 | 0.0 | 0.00 | 0.08 | 0.00 | 92 | 1012.1 |
| 20260901084907 | 15 | 255 | 0.0 | 0.0 | 0.00 | 0.08 | 0.00 | 93 | 1012.3 |
| 20260901084405 | 15 | 255 | 0.0 | 0.0 | 0.00 | 0.08 | 0.00 | 93 | 1012.4 |
| 20260901083905 | 15 | 256 | 0.0 | 0.0 | 0.00 | 0.08 | 0.00 | 94 | 1012.3 |
| 20260901083409 | 15 | 256 | 0.0 | 0.0 | 0.00 | 0.08 | 0.00 | 94 | 1012.5 |
| 20260901081908 | 15 | 256 | 0.0 | 0.0 | 0.00 | 0.08 | 0.00 | 93 | 1012.6 |
| 20260901081406 | 15 | 256 | 0.0 | 0.0 | 0.00 | 0.08 | 0.00 | 93 | 1012.6 |
| 20260901080404 | 15 | 256 | 0.0 | 0.0 | 0.00 | 0.08 | 0.00 | 93 | 1012.6 |
| 20260901074904 | 15 | 256 | 0.0 | 0.0 | 0.00 | 0.08 | 0.00 | 93 | 1012.8 |
| 20260901074407 | 15 | 256 | 0.0 | 0.0 | 0.00 | 0.08 | 0.00 | 93 | 1012.9 |
| 20260901073906 | 15 | 256 | 0.0 | 0.0 | 0.00 | 0.08 | 0.00 | 93 | 1012.9 |
| 20260901073405 | 15 | 256 | 0.0 | 0.0 | 0.00 | 0.08 | 0.00 | 93 | 1012.9 |
| 20260901071906 | 15 | 256 | 0.0 | 0.0 | 0.00 | 0.08 | 0.00 | 93 | 1012.9 |
| 20260901071404 | 15 | 256 | 0.0 | 0.0 | 0.00 | 0.08 | 0.00 | 93 | 1012.9 |
| 20260901070907 | 15 | 256 | 0.0 | 0.0 | 0.00 | 0.08 | 0.00 | 92 | 1012.9 |
| 20260901064906 | 15 | 256 | 0.0 | 0.0 | 0.00 | 0.08 | 0.00 | 92 | 1013.0 |
| 20260901064405 | 15 | 256 | 0.0 | 0.0 | 0.00 | 0.08 | 0.00 | 92 | 1012.9 |
| 20260901063905 | 15 | 256 | 0.0 | 0.0 | 0.00 | 0.08 | 0.00 | 92 | 1012.7 |
| 20260901063408 | 15 | 256 | 0.0 | 0.0 | 0.00 | 0.08 | 0.00 | 92 | 1012.6 |
| 20260901061908 | 15 | 256 | 0.0 | 0.0 | 0.00 | 0.08 | 0.00 | 92 | 1012.6 |
| 20260901061406 | 15 | 256 | 0.0 | 0.0 | 0.00 | 0.08 | 0.00 | 92 | 1012.7 |
| 20260901060909 | 15 | 256 | 0.0 | 0.0 | 0.00 | 0.08 | 0.00 | 92 | 1012.8 |
| 20260901060406 | 15 | 256 | 0.0 | 0.0 | 0.00 | 0.08 | 0.00 | 92 | 1013.0 |
| 20260901054905 | 15 | 257 | 0.0 | 0.0 | 0.00 | 0.08 | 0.08 | 92 | 1012.9 |
| 20260901054407 | 15 | 257 | 0.0 | 1.6 | 0.00 | 0.08 | 0.08 | 93 | 1012.8 |
| 20260901053906 | 15 | 257 | 0.0 | 1.6 | 0.00 | 0.08 | 0.08 | 93 | 1012.9 |
| 20260901053405 | 16 | 257 | 0.0 | 0.0 | 0.00 | 0.08 | 0.08 | 93 | 1012.7 |
| 20260901051905 | 16 | 257 | 0.0 | 0.0 | 0.00 | 0.10 | 0.08 | 93 | 1012.6 |
| 20260901050907 | 16 | 257 | 0.0 | 0.0 | 0.00 | 0.10 | 0.08 | 93 | 1012.7 |
| 20260901044908 | 16 | 257 | 0.0 | 0.0 | 0.00 | 0.10 | 0.08 | 93 | 1012.5 |
| 20260901044406 | 16 | 257 | 0.0 | 0.0 | 0.00 | 0.10 | 0.08 | 93 | 1012.3 |
| 20260901043904 | 16 | 257 | 0.0 | 0.0 | 0.00 | 0.10 | 0.08 | 92 | 1012.3 |
| 20260901043404 | 16 | 257 | 0.0 | 0.0 | 0.00 | 0.10 | 0.08 | 93 | 1012.4 |
| 20260901041918 | 16 | 257 | 0.0 | 0.0 | 0.03 | 0.10 | 0.08 | 92 | 1012.7 |
| 20260901041427 | 16 | 257 | 0.0 | 0.0 | 0.03 | 0.10 | 0.08 | 92 | 1012.7 |
| 20260901040924 | 16 | 257 | 0.0 | 0.0 | 0.03 | 0.10 | 0.08 | 92 | 1012.7 |
| 20260901040407 | 16 | 257 | 0.0 | 0.0 | 0.03 | 0.10 | 0.08 | 91 | 1012.9 |
| 20260901034904 | 16 | 257 | 0.0 | 0.0 | 0.03 | 0.10 | 0.08 | 91 | 1013.0 |
| 20260901034408 | 16 | 257 | 0.0 | 0.0 | 0.03 | 0.10 | 0.08 | 91 | 1012.9 |
| 20260901033405 | 16 | 277 | 0.0 | 0.0 | 0.03 | 0.10 | 0.08 | 90 | 1012.7 |
| 20260901031905 | 16 | 277 | 0.0 | 0.0 | 0.00 | 0.08 | 0.05 | 90 | 1012.7 |
| 20260901031408 | 16 | 277 | 0.0 | 0.0 | 0.03 | 0.08 | 0.05 | 90 | 1012.8 |
| 20260901030922 | 17 | 277 | 0.0 | 0.0 | 0.03 | 0.08 | 0.05 | 91 | 1012.7 |
| 20260901030420 | 17 | 277 | 0.0 | 0.0 | 0.03 | 0.08 | 0.05 | 90 | 1012.9 |
| 20260901024932 | 17 | 245 | 0.0 | 0.0 | 0.03 | 0.08 | 0.05 | 90 | 1012.5 |
| 20260901024427 | 17 | 188 | 0.0 | 0.0 | 0.03 | 0.08 | 0.05 | 90 | 1013.1 |
| 20260901023904 | 17 | 188 | 0.0 | 0.0 | 0.03 | 0.08 | 0.05 | 89 | 1013.3 |
| 20260901023404 | 17 | 188 | 0.0 | 0.0 | 0.03 | 0.08 | 0.05 | 88 | 1013.2 |
| 20260901021904 | 17 | 189 | 0.0 | 1.6 | 0.03 | 0.08 | 0.05 | 87 | 1013.5 |
| 20260901021405 | 17 | 218 | 0.0 | 1.6 | 0.03 | 0.08 | 0.05 | 87 | 1013.3 |
| 20260901020904 | 17 | 296 | 0.0 | 1.6 | 0.00 | 0.05 | 0.03 | 86 | 1012.7 |
| 20260901020408 | 17 | 298 | 0.0 | 19.3 | 0.00 | 0.05 | 0.03 | 84 | 1012.2 |
| 20260901014908 | 19 | 232 | 1.6 | 20.9 | 0.00 | 0.05 | 0.03 | 77 | 1011.5 |
| 20260901014406 | 20 | 240 | 4.8 | 22.5 | 0.00 | 0.05 | 0.03 | 71 | 1010.9 |
| 20260901013905 | 21 | 280 | 8.0 | 22.5 | 0.00 | 0.08 | 0.03 | 66 | 1010.5 |
| 20260901013403 | 21 | 297 | 0.0 | 9.7 | 0.00 | 0.08 | 0.03 | 66 | 1010.2 |
| 20260901011903 | 22 | 28 | 0.0 | 0.0 | 0.00 | 0.08 | 0.03 | 68 | 1009.6 |
| 20260901011407 | 23 | 28 | 0.0 | 0.0 | 0.00 | 0.08 | 0.03 | 63 | 1009.5 |
| 20260901010905 | 25 | 47 | 0.0 | 0.0 | 0.00 | 0.08 | 0.03 | 53 | 1009.4 |
| 20260901004905 | 27 | 95 | 0.0 | 0.0 | 0.00 | 0.08 | 0.03 | 45 | 1009.5 |
| 20260901004407 | 27 | 95 | 0.0 | 0.0 | 0.00 | 0.08 | 0.03 | 40 | 1009.5 |
| 20260901003906 | 27 | 95 | 0.0 | 0.0 | 0.00 | 0.08 | 0.03 | 36 | 1009.5 |
| 20260901001408 | 27 | 106 | 0.0 | 0.0 | 0.00 | 0.08 | 0.03 | 34 | 1009.6 |
| 20260901000406 | 28 | 107 | 0.0 | 0.0 | 0.00 | 0.08 | 0.03 | 33 | 1009.7 |
| 20260831234905 | 28 | 153 | 0.0 | 0.0 | 0.00 | 0.10 | 0.03 | 32 | 1009.8 |
| 20260831233905 | 28 | 153 | 0.0 | 0.0 | 0.00 | 0.10 | 0.03 | 32 | 1009.9 |
| 20260831233405 | 29 | 153 | 0.0 | 0.0 | 0.00 | 0.10 | 0.03 | 30 | 1009.8 |
| 20260831231909 | 30 | 153 | 0.0 | 4.8 | 0.00 | 0.10 | 0.03 | 28 | 1009.8 |
| 20260831231406 | 30 | 51 | 0.0 | 4.8 | 0.00 | 0.10 | 0.03 | 29 | 1009.8 |
| 20260831230905 | 30 | 59 | 0.0 | 0.0 | 0.00 | 0.10 | 0.03 | 29 | 1009.7 |
| 20260831230409 | 30 | 59 | 0.0 | 3.2 | 0.00 | 0.10 | 0.03 | 29 | 1009.8 |
| 20260831224904 | 30 | 78 | 0.0 | 0.0 | 0.00 | 0.13 | 0.03 | 30 | 1010.1 |
| 20260831224408 | 30 | 91 | 0.0 | 0.0 | 0.00 | 0.13 | 0.03 | 32 | 1010.2 |
| 20260831223906 | 30 | 131 | 0.0 | 0.0 | 0.00 | 0.13 | 0.03 | 32 | 1010.3 |
| 20260831223405 | 30 | 131 | 0.0 | 0.0 | 0.00 | 0.13 | 0.03 | 32 | 1010.3 |
| 20260831221905 | 29 | 55 | 0.0 | 0.0 | 0.00 | 0.13 | 0.03 | 33 | 1010.5 |
| 20260831221407 | 28 | 55 | 0.0 | 0.0 | 0.00 | 0.13 | 0.03 | 34 | 1010.6 |
| 20260831220906 | 28 | 55 | 0.0 | 0.0 | 0.00 | 0.13 | 0.03 | 34 | 1010.7 |
| 20260831220405 | 28 | 55 | 0.0 | 3.2 | 0.00 | 0.13 | 0.03 | 32 | 1010.7 |
| 20260831213906 | 29 | 49 | 0.0 | 0.0 | 0.00 | 0.15 | 0.03 | 33 | 1010.9 |
| 20260831213405 | 29 | 43 | 0.0 | 0.0 | 0.00 | 0.15 | 0.03 | 33 | 1011.0 |
| 20260831211905 | 30 | 77 | 0.0 | 1.6 | 0.00 | 0.15 | 0.03 | 33 | 1011.2 |
| 20260831211408 | 30 | 65 | 0.0 | 0.0 | 0.00 | 0.15 | 0.03 | 32 | 1011.3 |
| 20260831210907 | 29 | 65 | 0.0 | 0.0 | 0.00 | 0.15 | 0.03 | 33 | 1011.3 |
| 20260831210405 | 29 | 66 | 0.0 | 0.0 | 0.00 | 0.15 | 0.03 | 34 | 1011.5 |
| 20260831204906 | 28 | 68 | 0.0 | 0.0 | 0.00 | 0.15 | 0.03 | 34 | 1011.6 |
| 20260831203406 | 28 | 69 | 0.0 | 0.0 | 0.00 | 0.15 | 0.03 | 34 | 1011.9 |
| 20260831201905 | 28 | 70 | 0.0 | 0.0 | 0.00 | 0.15 | 0.03 | 32 | 1012.2 |
| 20260831201408 | 28 | 70 | 0.0 | 0.0 | 0.00 | 0.15 | 0.03 | 34 | 1012.3 |
| 20260831200906 | 28 | 70 | 0.0 | 0.0 | 0.00 | 0.15 | 0.03 | 34 | 1012.4 |
| 20260831200405 | 28 | 70 | 0.0 | 0.0 | 0.00 | 0.15 | 0.03 | 34 | 1012.5 |
| 20260831194905 | 27 | 70 | 0.0 | 0.0 | 0.00 | 0.15 | 0.03 | 36 | 1012.6 |
| 20260831194408 | 27 | 76 | 0.0 | 0.0 | 0.00 | 0.15 | 0.03 | 34 | 1012.7 |
| 20260831193906 | 27 | 79 | 0.0 | 0.0 | 0.00 | 0.15 | 0.03 | 37 | 1012.7 |
| 20260831193405 | 27 | 79 | 0.0 | 0.0 | 0.00 | 0.15 | 0.03 | 36 | 1012.8 |
| 20260831191905 | 27 | 79 | 0.0 | 0.0 | 0.00 | 0.15 | 0.03 | 39 | 1013.0 |
| 20260831191408 | 27 | 79 | 0.0 | 0.0 | 0.00 | 0.15 | 0.03 | 38 | 1013.1 |
| 20260831190406 | 27 | 79 | 0.0 | 0.0 | 0.00 | 0.15 | 0.03 | 38 | 1013.3 |
| 20260831184905 | 27 | 79 | 0.0 | 0.0 | 0.00 | 0.15 | 0.03 | 39 | 1013.5 |
| 20260831184408 | 27 | 79 | 0.0 | 0.0 | 0.00 | 0.15 | 0.03 | 39 | 1013.5 |
| 20260831183907 | 27 | 79 | 0.0 | 0.0 | 0.00 | 0.15 | 0.03 | 40 | 1013.5 |
| 20260831183405 | 27 | 79 | 0.0 | 0.0 | 0.00 | 0.15 | 0.03 | 38 | 1013.5 |
| 20260831181404 | 26 | 88 | 0.0 | 0.0 | 0.00 | 0.15 | 0.03 | 40 | 1013.7 |
| 20260831180407 | 26 | 88 | 0.0 | 0.0 | 0.03 | 0.15 | 0.03 | 39 | 1013.8 |
| 20260831174905 | 25 | 88 | 0.0 | 0.0 | 0.03 | 0.15 | 0.03 | 42 | 1013.9 |
| 20260831174403 | 25 | 88 | 0.0 | 0.0 | 0.03 | 0.15 | 0.03 | 41 | 1013.9 |
| 20260831173903 | 25 | 88 | 0.0 | 0.0 | 0.03 | 0.15 | 0.03 | 43 | 1013.9 |
| 20260831173406 | 25 | 132 | 0.0 | 0.0 | 0.03 | 0.15 | 0.03 | 43 | 1013.9 |
| 20260831171908 | 25 | 132 | 0.0 | 0.0 | 0.03 | 0.15 | 0.03 | 46 | 1014.0 |
| 20260831170404 | 25 | 132 | 0.0 | 0.0 | 0.00 | 0.13 | 0.00 | 44 | 1014.1 |
| 20260831164904 | 25 | 132 | 0.0 | 0.0 | 0.00 | 0.13 | 0.00 | 44 | 1014.1 |
| 20260831164403 | 25 | 132 | 0.0 | 0.0 | 0.00 | 0.13 | 0.00 | 44 | 1014.1 |
| 20260831163907 | 25 | 132 | 0.0 | 0.0 | 0.00 | 0.13 | 0.00 | 45 | 1014.2 |
| 20260831163405 | 24 | 132 | 0.0 | 0.0 | 0.00 | 0.13 | 0.00 | 45 | 1014.2 |
| 20260831161905 | 24 | 132 | 0.0 | 0.0 | 0.00 | 0.13 | 0.00 | 43 | 1014.1 |
| 20260831161404 | 24 | 132 | 0.0 | 0.0 | 0.00 | 0.13 | 0.00 | 44 | 1014.0 |
| 20260831160904 | 24 | 132 | 0.0 | 0.0 | 0.00 | 0.13 | 0.00 | 42 | 1014.0 |
| 20260831160407 | 23 | 132 | 0.0 | 0.0 | 0.00 | 0.13 | 0.00 | 46 | 1013.9 |
| 20260831154908 | 23 | 132 | 0.0 | 0.0 | 0.00 | 0.13 | 0.00 | 51 | 1014.0 |
| 20260831154406 | 23 | 132 | 0.0 | 0.0 | 0.00 | 0.13 | 0.00 | 52 | 1014.0 |
| 20260831153909 | 23 | 132 | 0.0 | 0.0 | 0.00 | 0.13 | 0.00 | 52 | 1014.0 |
| 20260831151905 | 21 | 132 | 0.0 | 0.0 | 0.00 | 0.13 | 0.00 | 58 | 1014.0 |
| 20260831151409 | 21 | 132 | 0.0 | 0.0 | 0.00 | 0.13 | 0.00 | 59 | 1014.0 |
| 20260831150907 | 20 | 132 | 0.0 | 0.0 | 0.00 | 0.13 | 0.00 | 58 | 1014.0 |
| 20260831150406 | 20 | 132 | 0.0 | 0.0 | 0.00 | 0.13 | 0.00 | 61 | 1014.0 |
| 20260831144907 | 18 | 132 | 0.0 | 0.0 | 0.00 | 0.13 | 0.00 | 70 | 1013.9 |
| 20260831144405 | 18 | 132 | 0.0 | 0.0 | 0.00 | 0.13 | 0.00 | 72 | 1014.0 |
| 20260831143905 | 18 | 132 | 0.0 | 0.0 | 0.00 | 0.13 | 0.00 | 74 | 1014.1 |
| 20260831143408 | 18 | 132 | 0.0 | 0.0 | 0.00 | 0.13 | 0.00 | 74 | 1014.1 |